TimeCDT,TemperatureF,Dew PointF,Humidity,Sea Level PressureIn,VisibilityMPH,Wind Direction,Wind SpeedMPH,Gust SpeedMPH,PrecipitationIn,Events,Conditions,WindDirDegrees,DateUTC
12:06 AM,44.6,44.6,100,30.17,0.2,Calm,Calm,-,N/A,Fog,Fog,0,2012-10-09 05:06:00
12:11 AM,44.6,44.6,100,30.17,0.5,Calm,Calm,-,N/A,Fog,Fog,0,2012-10-09 05:11:00
12:22 AM,46.4,44.6,93,30.16,0.5,Calm,Calm,-,N/A,Fog,Fog,0,2012-10-09 05:22:00
12:30 AM,46.4,44.6,93,30.16,2.0,Calm,Calm,-,N/A,,Clear,0,2012-10-09 05:30:00
12:48 AM,44.6,44.6,100,30.16,0.8,Calm,Calm,-,N/A,,Mist,0,2012-10-09 05:48:00
12:53 AM,45.0,43.0,93,30.15,0.5,Calm,Calm,-,N/A,Fog,Fog,0,2012-10-09 05:53:00
12:58 AM,44.6,42.8,93,30.15,0.2,Calm,Calm,-,N/A,Fog,Fog,0,2012-10-09 05:58:00
1:28 AM,44.6,42.8,93,30.15,0.5,Calm,Calm,-,N/A,Fog,Fog,0,2012-10-09 06:28:00
1:39 AM,44.6,42.8,93,30.15,0.2,Calm,Calm,-,N/A,Fog,Fog,0,2012-10-09 06:39:00
1:46 AM,44.6,42.8,93,30.15,0.5,Calm,Calm,-,N/A,Fog,Fog,0,2012-10-09 06:46:00
1:53 AM,44.1,43.0,96,30.15,1.0,Calm,Calm,-,N/A,,Mist,0,2012-10-09 06:53:00
1:56 AM,44.6,42.8,93,30.15,2.0,Calm,Calm,-,N/A,,Partly Cloudy,0,2012-10-09 06:56:00
1:58 AM,44.6,42.8,93,30.15,1.0,Calm,Calm,-,N/A,,Mist,0,2012-10-09 06:58:00
2:04 AM,44.6,42.8,93,30.14,0.2,Calm,Calm,-,N/A,Fog,Fog,0,2012-10-09 07:04:00
2:18 AM,44.6,44.6,100,30.14,0.5,Calm,Calm,-,N/A,Fog,Fog,0,2012-10-09 07:18:00
2:23 AM,44.6,44.6,100,30.14,1.0,Calm,Calm,-,N/A,,Mist,0,2012-10-09 07:23:00
2:27 AM,46.4,44.6,93,30.14,2.0,Calm,Calm,-,N/A,,Scattered Clouds,0,2012-10-09 07:27:00
2:37 AM,44.6,42.8,93,30.14,1.0,Calm,Calm,-,N/A,,Mist,0,2012-10-09 07:37:00
2:39 AM,44.6,42.8,93,30.14,0.5,Calm,Calm,-,N/A,Fog,Fog,0,2012-10-09 07:39:00
2:53 AM,44.6,42.8,93,30.15,0.5,Calm,Calm,-,N/A,Fog,Fog,0,2012-10-09 07:53:00
3:05 AM,44.6,44.6,100,30.15,1.5,Calm,Calm,-,N/A,,Clear,0,2012-10-09 08:05:00
3:14 AM,44.6,44.6,100,30.14,2.5,Calm,Calm,-,0.01,,Clear,0,2012-10-09 08:14:00
3:34 AM,44.6,44.6,100,30.14,1.0,Calm,Calm,-,0.01,,Clear,0,2012-10-09 08:34:00
3:45 AM,44.6,42.8,93,30.14,4.0,Calm,Calm,-,0.01,,Clear,0,2012-10-09 08:45:00
3:53 AM,44.6,42.8,93,30.14,10.0,Calm,Calm,-,N/A,,Clear,0,2012-10-09 08:53:00
4:04 AM,42.8,42.8,100,30.14,2.5,Calm,Calm,-,N/A,,Partly Cloudy,0,2012-10-09 09:04:00
4:07 AM,44.6,42.8,93,30.14,1.0,Calm,Calm,-,N/A,,Mist,0,2012-10-09 09:07:00
4:14 AM,44.6,42.8,93,30.14,0.2,Calm,Calm,-,N/A,Fog,Fog,0,2012-10-09 09:14:00
4:24 AM,42.8,42.8,100,30.14,1.2,Calm,Calm,-,N/A,,Partly Cloudy,0,2012-10-09 09:24:00
4:28 AM,44.6,42.8,93,30.14,3.0,Calm,Calm,-,N/A,,Partly Cloudy,0,2012-10-09 09:28:00
4:36 AM,44.6,42.8,93,30.14,1.8,Calm,Calm,-,N/A,,Clear,0,2012-10-09 09:36:00
4:46 AM,42.8,41.0,93,30.14,0.2,Calm,Calm,-,N/A,Fog,Fog,0,2012-10-09 09:46:00
4:53 AM,43.0,42.1,97,30.14,0.5,Calm,Calm,-,N/A,Fog,Fog,0,2012-10-09 09:53:00
5:06 AM,42.8,41.0,93,30.14,1.0,Calm,Calm,-,N/A,,Mist,0,2012-10-09 10:06:00
5:13 AM,41.0,39.2,93,30.14,0.2,Calm,Calm,-,N/A,Fog,Fog,0,2012-10-09 10:13:00
5:26 AM,42.8,41.0,93,30.15,0.5,Calm,Calm,-,N/A,Fog,Fog,0,2012-10-09 10:26:00
5:53 AM,42.1,41.0,96,30.15,6.0,Calm,Calm,-,N/A,,Clear,0,2012-10-09 10:53:00
6:00 AM,42.8,41.0,93,30.15,6.0,Calm,Calm,-,N/A,,Mostly Cloudy,0,2012-10-09 11:00:00
6:09 AM,42.8,41.0,93,30.15,1.5,Calm,Calm,-,N/A,,Overcast,0,2012-10-09 11:09:00
6:15 AM,42.8,41.0,93,30.15,0.2,Calm,Calm,-,N/A,Fog,Fog,0,2012-10-09 11:15:00
6:29 AM,42.8,41.0,93,30.15,0.5,Calm,Calm,-,N/A,Fog,Fog,0,2012-10-09 11:29:00
6:53 AM,42.1,41.0,96,30.16,0.5,Calm,Calm,-,N/A,Fog,Fog,0,2012-10-09 11:53:00
7:23 AM,41.0,41.0,100,30.16,1.2,Calm,Calm,-,N/A,,Clear,0,2012-10-09 12:23:00
7:40 AM,42.8,41.0,93,30.16,3.0,Calm,Calm,-,N/A,,Clear,0,2012-10-09 12:40:00
7:53 AM,43.0,43.0,100,30.16,3.0,Calm,Calm,-,N/A,,Clear,0,2012-10-09 12:53:00
8:53 AM,51.1,48.0,89,30.17,10.0,Calm,Calm,-,N/A,,Clear,0,2012-10-09 13:53:00
9:53 AM,57.0,48.9,74,30.17,10.0,Variable,4.6,-,N/A,,Clear,0,2012-10-09 14:53:00
10:53 AM,62.1,50.0,65,30.16,10.0,South,8.1,-,N/A,,Clear,180,2012-10-09 15:53:00
11:53 AM,64.9,50.0,58,30.14,10.0,SW,6.9,-,N/A,,Clear,220,2012-10-09 16:53:00
12:53 PM,68.0,51.1,55,30.11,10.0,SW,5.8,-,N/A,,Clear,230,2012-10-09 17:53:00
1:53 PM,70.0,52.0,53,30.08,10.0,West,3.5,-,N/A,,Clear,260,2012-10-09 18:53:00
2:53 PM,72.0,54.0,53,30.05,10.0,Calm,Calm,-,N/A,,Clear,0,2012-10-09 19:53:00
3:53 PM,73.0,55.0,53,30.01,10.0,Variable,4.6,-,N/A,,Clear,0,2012-10-09 20:53:00
4:53 PM,73.0,55.9,55,29.99,10.0,SE,5.8,-,N/A,,Clear,140,2012-10-09 21:53:00
5:53 PM,72.0,55.9,57,29.99,10.0,Variable,3.5,-,N/A,,Clear,0,2012-10-09 22:53:00
6:53 PM,66.0,57.9,75,29.99,10.0,Calm,Calm,-,N/A,,Clear,0,2012-10-09 23:53:00
7:53 PM,64.0,57.0,78,29.99,10.0,Variable,3.5,-,N/A,,Clear,0,2012-10-10 00:53:00
8:53 PM,61.0,57.9,90,30.01,10.0,Calm,Calm,-,N/A,,Mostly Cloudy,0,2012-10-10 01:53:00
9:53 PM,64.9,57.9,78,30.03,10.0,SE,3.5,-,N/A,,Overcast,140,2012-10-10 02:53:00
10:53 PM,64.9,57.0,75,30.06,10.0,SSE,4.6,-,N/A,,Overcast,160,2012-10-10 03:53:00
11:53 PM,64.9,57.9,78,30.06,10.0,South,3.5,-,N/A,,Overcast,170,2012-10-10 04:53:00